[[{"header":{"parameterUnit":"m.s-1","parameterCategory":1,"la1":30.2991,"la2":30.254,"lo1":-89.0895,"lo2":-89.0444,"dy":0.0017,"dx":0.0017,"nx":28,"ny":28,"refTime":"2024-08-23T03:00:00:Z","depth":0,"parameterNumber":2,"parameterNumberName":"U-component_of_WINDS"},"data":[0,0,0,0,0,0,0,0,0,0,0,0,0,0,0,0,0,0,0,0,0,0,0,0,0,0,0,0,0,0,0,0,0,0,0,0,0,0,0,0,0,0,0,0,0,0,0,0,0,0,0,0,0,0,0,0,0,0,-5.277,-5.2771,0,-5.283,-5.2831,-5.2832,-5.2676,-5.2671,-5.2666,-5.2661,-5.2729,-5.2735,-5.2742,0,0,0,0,0,0,0,0,0,0,0,0,0,-5.2523,-5.2528,-5.277,-5.2771,-5.2771,-5.283,-5.2831,-5.2832,-5.2677,-5.2671,-5.2665,-5.2659,-5.2727,-5.2734,-5.2742,0,0,0,0,0,0,0,0,0,0,0,0,0,-5.2612,-5.253,-5.277,-5.2701,-5.2695,-5.283,-5.2831,-5.2832,-5.2678,-5.2671,-5.2663,-5.2656,-5.2724,-5.2734,-5.2743,-5.2949,0,0,-5.2772,-5.2776,0,0,0,0,0,0,0,0,-5.2607,-5.2621,-5.271,-5.2706,-5.27,-5.2738,-5.2769,-5.2872,-5.268,-5.2685,-5.2661,-5.2653,-5.2738,-5.2746,-5.2774,-5.2952,-5.2955,-5.2773,-5.2779,-5.2783,-5.2786,0,0,0,0,0,0,0,-5.2601,-5.2618,-5.2794,-5.2712,-5.2705,-5.2668,-5.2672,-5.2788,-5.2752,-5.2684,-5.2672,-5.2681,-5.2734,-5.2765,-5.2774,-5.2956,-5.2773,-5.2781,-5.2787,-5.2791,-5.3304,-5.3312,0,0,0,0,0,0,-5.2603,-5.2614,-5.2792,-5.2796,-5.2634,-5.2678,-5.2683,-5.2733,-5.275,-5.2746,-5.2688,-5.2674,-5.2752,-5.2763,-5.2776,-5.3015,-5.2783,-5.2792,-5.2797,-5.3296,-5.3306,-5.3314,0,0,0,0,0,0,-5.2599,-5.2621,-5.2789,-5.2702,-5.272,-5.269,-5.2748,-5.2738,-5.2769,-5.2753,-5.2747,-5.2726,-5.2747,-5.2763,-5.2906,-5.3016,-5.2796,-5.2805,-5.3287,-5.3299,-5.331,-5.3498,0,0,0,0,0,0,-5.2592,-5.262,-5.2697,-5.2704,-5.2725,-5.2918,-5.2754,-5.2745,-5.2785,-5.2768,-5.2787,-5.2783,-5.2742,-5.2893,-5.2916,-5.3025,-5.2812,-5.3277,-5.3292,-5.3306,-5.3482,-5.3515,-5.3543,0,0,0,0,0,-5.2584,-5.275,-5.2702,-5.2724,-5.2821,-5.2925,-5.2937,-5.2884,-5.2795,-5.2872,-5.2862,-5.2783,-5.3001,-5.2909,-5.2933,-5.3047,-5.327,-5.3288,-5.3305,-5.3468,-5.3509,-5.3543,0,0,0,0,0,0,-5.2758,-5.2749,-5.2696,-5.2869,-5.2899,-5.2898,-5.2994,-5.2929,-5.2986,-5.2968,-5.2903,-5.2909,-5.3064,-5.307,-5.2968,-5.3246,-5.312,-5.3144,-5.3236,-5.3274,-5.3304,-5.3298,-5.282,0,0,0,0,0,-5.2817,-5.29,-5.2888,-5.3042,-5.3059,-5.3025,-5.3068,-5.3025,-5.3054,-5.3066,-5.3066,-5.3098,-5.3173,-5.3224,-5.3293,-5.3483,-5.3484,-5.3574,-5.3604,-5.363,-5.365,-5.3748,-5.3787,-5.3373,-5.3373,-5.3372,0,0,-5.2938,-5.2944,-5.3001,-5.3077,-5.3095,-5.3183,-5.3036,-5.3137,-5.3201,-5.3082,-5.3215,-5.3217,-5.3249,-5.3416,-5.3489,-5.3426,-5.3765,-5.3652,-5.3672,-5.3679,-5.3771,-5.381,-5.3845,-5.3385,-5.3383,-5.3381,0,0,-5.3204,-5.3218,-5.3345,-5.3365,-5.3393,-5.3369,-5.34,-5.3409,-5.3405,-5.3538,-5.3449,-5.3527,-5.3658,-5.3683,-5.3714,-5.3988,-5.3917,-5.4013,-5.4172,-5.4269,-5.4301,-5.433,-5.4425,-5.446,-5.4034,-5.4034,-5.4035,0,-5.3352,-5.3479,-5.342,-5.3525,-5.356,-5.3454,-5.3583,-5.3606,-5.3657,-5.3684,-5.3612,-5.3773,-5.3787,-5.3957,-5.4023,-5.4053,-5.4085,-5.4009,-5.4301,-5.4329,-5.4355,-5.4445,-5.4481,-5.4045,-5.4044,-5.4043,-5.4042,0,-5.3659,-5.3749,-5.3849,-5.3896,-5.3944,-5.4061,-5.4019,-5.4075,-5.4028,-5.4012,-5.4148,-5.4162,-5.4229,-5.4267,-5.4224,-5.4431,-5.439,-5.4312,-5.4183,-5.4407,-5.449,-5.4524,-5.4062,-5.4058,-5.4054,-5.4051,0,0,-5.4035,-5.4046,-5.4084,-5.4103,-5.4126,-5.4195,-5.4307,-5.4371,-5.4419,-5.4458,-5.4549,-5.4663,-5.4588,-5.4623,-5.4582,-5.4668,-5.4881,-5.4577,-5.4577,-5.463,-5.5107,-5.5163,-5.5204,-5.4834,-5.4841,-5.4846,-5.5103,0,-5.4294,-5.4483,-5.4432,-5.4622,-5.4703,-5.4603,-5.4701,-5.4726,-5.4714,-5.4782,-5.477,-5.485,-5.4748,-5.4767,-5.4847,-5.4838,-5.4975,-5.4819,-5.4918,-5.4923,-5.491,-5.5248,-5.5309,-5.5551,-5.5135,-5.5141,-5.5145,0,-5.4622,-5.4669,-5.4866,-5.4872,-5.4905,-5.4993,-5.5046,-5.5114,-5.514,-5.5125,-5.5163,-5.5105,-5.5216,-5.5088,-5.524,-5.5135,-5.5173,-5.5175,-5.5183,-5.5188,-5.5045,-5.526,-5.5627,-5.5662,-5.5196,-5.5192,-5.5188,0,-5.4872,-5.4986,-5.5117,-5.5137,-5.515,-5.5213,-5.5222,-5.5241,-5.5282,-5.533,-5.5356,-5.5418,-5.5452,-5.5502,-5.5461,-5.5373,-5.5619,-5.5489,-5.5609,-5.561,-5.5663,-5.5659,-5.6038,-5.5694,-5.5693,-5.5692,-5.5692,0,-5.5164,-5.5288,-5.5229,-5.531,-5.5445,-5.5386,-5.5522,-5.552,-5.5537,-5.5616,-5.5536,-5.5612,-5.5556,-5.5628,-5.5598,-5.5726,-5.5743,-5.5734,-5.5724,-5.5739,-5.574,-5.5761,-5.5742,-5.5702,-5.57,-5.5698,-5.5696,0,-5.5465,-5.5431,-5.5567,-5.5567,-5.557,-5.5669,-5.5669,-5.5744,-5.5726,-5.5827,-5.5848,-5.582,-5.59,-5.5866,-5.5952,-5.5931,-5.6095,-5.6065,-5.6085,-5.6076,-5.6197,-5.6184,-5.66,-5.665,-5.6277,-5.628,-5.6283,0,-5.5653,-5.5744,-5.5753,-5.5799,-5.5812,-5.5888,-5.5928,-5.5875,-5.5921,-5.5957,-5.6028,-5.6101,-5.6155,-5.6288,-5.6277,-5.6342,-5.631,-5.6451,-5.6319,-5.6331,-5.6308,-5.6301,-5.6309,-5.6477,-5.6481,-5.6485,-5.6487,0,-5.5987,-5.5965,-5.6026,-5.6081,-5.6132,-5.6173,-5.6208,-5.6251,-5.6199,-5.6255,-5.6334,-5.6376,-5.6462,-5.6535,-5.6591,-5.6601,-5.6536,-5.653,-5.656,-5.6575,-5.6581,-5.6576,-5.6153,-5.6519,-5.6516,-5.6514,-5.6512,-5.6511,-5.6234,-5.631,-5.6327,-5.6397,-5.6418,-5.6452,-5.6521,-5.6511,-5.6575,-5.6638,-5.6604,-5.6696,-5.672,-5.6789,-5.6808,-5.688,-5.6824,-5.687,-5.688,-5.6892,-5.6906,-5.6573,-5.6891,-5.689,-5.6889,-5.6888,-5.6887,0,-5.6561,-5.6567,-5.6632,-5.6682,-5.6737,-5.667,-5.6705,-5.6755,-5.6836,-5.6863,-5.6918,-5.7009,-5.7079,-5.7073,-5.7137,-5.7196,-5.7168,-5.7215,-5.7208,-5.7211,-5.6953,-5.6919,-5.7236,-5.7236,-5.7236,-5.7236,-5.7236,-5.7236,-5.6738,-5.6861,-5.6842,-5.6975,-5.698,-5.7067,-5.7093,-5.7124,-5.7144,-5.7248,-5.7305,-5.73,-5.7313,-5.7378,-5.7439,-5.7436,-5.7462,-5.752,-5.7505,-5.7264,-5.7229,-5.7196,-5.7163,-5.7527,-5.7527,-5.7756,-5.7758,-5.776]},{"header":{"parameterUnit":"m.s-1","parameterCategory":1,"la1":30.2991,"la2":30.254,"lo1":-89.0895,"lo2":-89.0444,"dy":0.0017,"dx":0.0017,"nx":28,"ny":28,"refTime":"2024-08-23T03:00:00:Z","depth":0,"parameterNumber":3,"parameterNumberName":"V-component_of_WINDS"},"data":[0,0,0,0,0,0,0,0,0,0,0,0,0,0,0,0,0,0,0,0,0,0,0,0,0,0,0,0,0,0,0,0,0,0,0,0,0,0,0,0,0,0,0,0,0,0,0,0,0,0,0,0,0,0,0,0,0,0,-0.2026,-0.2027,0,-0.2133,-0.2134,-0.2135,-0.2256,-0.2258,-0.2259,-0.2261,-0.2366,-0.2367,-0.2368,0,0,0,0,0,0,0,0,0,0,0,0,0,-0.1921,-0.1922,-0.2026,-0.2027,-0.2028,-0.2132,-0.2134,-0.2135,-0.2256,-0.2258,-0.226,-0.2262,-0.2366,-0.2367,-0.2369,0,0,0,0,0,0,0,0,0,0,0,0,0,-0.1991,-0.1923,-0.2026,-0.2101,-0.2109,-0.2132,-0.2134,-0.2136,-0.2255,-0.2258,-0.2261,-0.2263,-0.2365,-0.2367,-0.2369,-0.2325,0,0,-0.2374,-0.2375,0,0,0,0,0,0,0,0,-0.1987,-0.1994,-0.2089,-0.2096,-0.2105,-0.2184,-0.2136,-0.2199,-0.2254,-0.2199,-0.2261,-0.2264,-0.2303,-0.231,-0.2324,-0.233,-0.2334,-0.2374,-0.2375,-0.2376,-0.2376,0,0,0,0,0,0,0,-0.1982,-0.199,-0.2068,-0.209,-0.21,-0.2128,-0.2141,-0.2148,-0.2235,-0.2204,-0.2213,-0.2225,-0.2308,-0.2322,-0.2327,-0.2336,-0.2374,-0.2375,-0.2376,-0.2377,-0.2309,-0.2306,0,0,0,0,0,0,-0.1966,-0.1986,-0.2065,-0.2071,-0.2051,-0.2128,-0.2142,-0.2156,-0.2235,-0.225,-0.2222,-0.223,-0.2318,-0.2325,-0.2332,-0.2284,-0.2376,-0.2377,-0.2378,-0.2311,-0.2308,-0.2305,0,0,0,0,0,0,-0.1963,-0.1972,-0.206,-0.2031,-0.2044,-0.2127,-0.2141,-0.2156,-0.2171,-0.2249,-0.2264,-0.2221,-0.232,-0.2329,-0.2325,-0.2289,-0.2378,-0.238,-0.2315,-0.231,-0.2306,-0.2188,0,0,0,0,0,0,-0.196,-0.197,-0.1956,-0.203,-0.2046,-0.2054,-0.2139,-0.2156,-0.2174,-0.2185,-0.2252,-0.2265,-0.2323,-0.2322,-0.2327,-0.2293,-0.2381,-0.2318,-0.2313,-0.2308,-0.2196,-0.2181,-0.2168,0,0,0,0,0,-0.1956,-0.1918,-0.1954,-0.1963,-0.2029,-0.2051,-0.206,-0.2129,-0.217,-0.2155,-0.2205,-0.2263,-0.2293,-0.2321,-0.2327,-0.2293,-0.2321,-0.2314,-0.2308,-0.2202,-0.2184,-0.2168,0,0,0,0,0,0,-0.1837,-0.1929,-0.1971,-0.1956,-0.1995,-0.2072,-0.2055,-0.2107,-0.2134,-0.2143,-0.2226,-0.224,-0.2226,-0.226,-0.229,-0.2254,-0.2315,-0.2309,-0.2232,-0.2215,-0.2201,-0.2192,-0.2382,0,0,0,0,0,-0.1809,-0.182,-0.19,-0.1879,-0.1897,-0.1972,-0.1985,-0.2034,-0.2077,-0.2094,-0.2144,-0.2182,-0.22,-0.221,-0.2231,-0.2202,-0.2216,-0.2181,-0.2167,-0.2155,-0.2149,-0.2133,-0.2118,-0.2284,-0.2284,-0.2284,0,0,-0.1751,-0.1803,-0.1805,-0.1857,-0.1893,-0.1901,-0.1985,-0.1991,-0.1997,-0.2095,-0.2094,-0.2131,-0.2179,-0.2162,-0.2157,-0.2189,-0.2106,-0.2147,-0.2137,-0.2137,-0.2125,-0.2109,-0.2095,-0.228,-0.228,-0.2281,0,0,-0.165,-0.1692,-0.1678,-0.1712,-0.1766,-0.1816,-0.1812,-0.1881,-0.191,-0.1911,-0.1983,-0.1991,-0.2021,-0.2051,-0.207,-0.1979,-0.2032,-0.1983,-0.1908,-0.1892,-0.1879,-0.1868,-0.1833,-0.1819,-0.1977,-0.1977,-0.1976,0,-0.1571,-0.1588,-0.1664,-0.1665,-0.1684,-0.1773,-0.1758,-0.1788,-0.1844,-0.1855,-0.1891,-0.1929,-0.1968,-0.1957,-0.1935,-0.1949,-0.1945,-0.1975,-0.1875,-0.1865,-0.1855,-0.1822,-0.1809,-0.197,-0.1971,-0.1972,-0.1972,0,-0.1487,-0.1497,-0.148,-0.1533,-0.1551,-0.1543,-0.1616,-0.1624,-0.1672,-0.1717,-0.1715,-0.1765,-0.1796,-0.1798,-0.1845,-0.1794,-0.1812,-0.186,-0.1923,-0.1832,-0.1802,-0.179,-0.1961,-0.1963,-0.1965,-0.1967,0,0,-0.1314,-0.1409,-0.1401,-0.1425,-0.149,-0.1498,-0.1494,-0.1526,-0.153,-0.1566,-0.1563,-0.1585,-0.163,-0.1652,-0.1702,-0.1688,-0.1609,-0.1739,-0.1741,-0.171,-0.1553,-0.1514,-0.1498,-0.1645,-0.1643,-0.1642,-0.1548,0,-0.1223,-0.1223,-0.129,-0.1269,-0.1278,-0.1362,-0.1358,-0.1396,-0.1438,-0.145,-0.1497,-0.151,-0.157,-0.1583,-0.1573,-0.162,-0.1578,-0.1629,-0.164,-0.164,-0.1624,-0.1484,-0.1443,-0.1352,-0.1537,-0.1535,-0.1534,0,-0.1117,-0.1147,-0.1127,-0.1191,-0.1197,-0.1192,-0.1225,-0.1237,-0.1281,-0.1312,-0.1335,-0.1393,-0.1391,-0.1451,-0.1448,-0.1481,-0.149,-0.1514,-0.1512,-0.1514,-0.158,-0.1479,-0.1325,-0.131,-0.1517,-0.1518,-0.1519,0,-0.0989,-0.1025,-0.1017,-0.1036,-0.111,-0.1105,-0.1135,-0.1182,-0.1196,-0.1224,-0.1234,-0.1261,-0.1275,-0.1294,-0.1357,-0.1395,-0.1345,-0.1412,-0.1369,-0.1367,-0.1353,-0.1352,-0.1195,-0.1362,-0.1362,-0.1362,-0.1362,0,-0.0879,-0.0863,-0.0961,-0.0956,-0.0939,-0.1016,-0.0997,-0.1036,-0.1077,-0.1079,-0.1154,-0.1154,-0.1237,-0.1246,-0.1295,-0.1283,-0.129,-0.1313,-0.1326,-0.1305,-0.1301,-0.131,-0.1317,-0.1359,-0.1359,-0.136,-0.1361,0,-0.0734,-0.0799,-0.0795,-0.0866,-0.0883,-0.0868,-0.0928,-0.0925,-0.0971,-0.0973,-0.0978,-0.105,-0.1064,-0.1129,-0.1158,-0.1191,-0.1161,-0.1188,-0.1146,-0.1154,-0.1107,-0.1109,-0.0948,-0.093,-0.1109,-0.1108,-0.1106,0,-0.0658,-0.0648,-0.0717,-0.0725,-0.0752,-0.0763,-0.0778,-0.0852,-0.0863,-0.0912,-0.0902,-0.0922,-0.0943,-0.0961,-0.1014,-0.1037,-0.1063,-0.1005,-0.1067,-0.1045,-0.1059,-0.1058,-0.1056,-0.0991,-0.0988,-0.0987,-0.0985,0,-0.0517,-0.0549,-0.0568,-0.0596,-0.0611,-0.0638,-0.0668,-0.0669,-0.0752,-0.076,-0.0776,-0.0792,-0.0821,-0.0839,-0.087,-0.09,-0.0954,-0.0965,-0.0956,-0.0934,-0.0909,-0.0919,-0.1108,-0.0968,-0.097,-0.0971,-0.0972,-0.0973,-0.0403,-0.0396,-0.0443,-0.0461,-0.0492,-0.0518,-0.0518,-0.0564,-0.0579,-0.0609,-0.0652,-0.0661,-0.0703,-0.075,-0.0776,-0.0782,-0.0814,-0.0801,-0.0797,-0.0792,-0.0781,-0.091,-0.0789,-0.0789,-0.079,-0.079,-0.0791,0,-0.0262,-0.0297,-0.0312,-0.0352,-0.0365,-0.0417,-0.0453,-0.046,-0.0467,-0.0503,-0.0521,-0.0537,-0.0554,-0.0609,-0.0632,-0.0626,-0.0652,-0.0629,-0.0629,-0.0635,-0.0753,-0.0757,-0.0608,-0.0608,-0.0608,-0.0608,-0.0608,-0.0608,-0.0191,-0.0182,-0.0219,-0.0226,-0.026,-0.027,-0.0286,-0.0309,-0.0338,-0.0353,-0.0368,-0.0404,-0.0446,-0.0472,-0.0489,-0.0505,-0.0509,-0.0477,-0.05,-0.0609,-0.0627,-0.0643,-0.0648,-0.0478,-0.0478,-0.0381,-0.038,-0.038]}]]